Location: The Saddle
(36.8333°N, 80.3417°W)
Time: 06:46:30
(UTC-04:00)

Vanguard 3 - Visible Passes

Search period start: 08 July 2025 00:00
Search period end: 18 July 2025 00:00
Orbit: 509 x 3214 km, 33.3° (Epoch: 07 July)

Date Brightness Start Highest point End Pass type
(mag) Time Alt. Az. Time Alt. Az. Time Alt. Az.
08 Jul 10.6 20:54:23 10° W 21:05:03 32° SSW 21:19:51 10° SSE visible
09 Jul 11.0 21:48:03 10° WSW 21:56:57 19° SW 22:07:51 10° S visible
11 Jul 11.0 21:19:22 10° WSW 21:26:41 16° SW 21:35:38 10° S visible
